星链-2443 (STARLINK-2443 )

导读

STARLINK-2443是由美国于北京时间2021年4月7日发射的星链网络卫星,属于SpaceX星链计划低轨互联网星座组网卫星。星链计划旨在通过全球大量低轨卫星为全球提供高速互联网接入服务,STARLINK-2443发射后成功进入预定轨道,参与后续组网运行,推进星座部署进程。

Basic Information
目录编号:
48107
目录名称:
STARLINK-2443
国际标识:
2021-027R
轨道中心:
EARTH
卫星名称:
星链-2443
卫星全名:
星链-2443 (STARLINK-2443 )
卫星状态:
在轨 (已飞行1983 天)
发射日期:
2021-04-07 UTC
国别 :
美国 (US)
星等 :
--
This satellite is enrolled in the Space Conjunction Data Service (SCDS) and the current flight risk assessment level is: No High Risk
Orbit Information
数据来源 国际轨道数据 AOE轨道数据
星历时间 2026-09-10T22:36:55+0800
23小时前
查看轨道信息
2026-09-10T07:00:00+0800
1天前
查看轨道信息
半长轴 6848.884km 6848.835km
偏心率 0.0001031 0.0000976
轨道倾角 53.160° 53.160°
近地点辐角 80.762° 92.753°
升交点赤经 12.217° 15.248°
平近点角 279.349° 277.733°
近地点 470.04km 470.029km
远地点 471.454km 471.367km
周期 94.013分钟 94.012分钟
每日圈数 15.316978 15.317144
Detailed Information
固有亮度:
5
最大亮度:
2.5
卫星平台:
Starlink V1.0
覆盖范围:
全球
运营商:
太空探索技术公司
运营商所在国:
美国
制造商(研发单位):
太空探索技术公司
制造商所在国:
美国
使用方式:
暂无
Satellite Introduction
星链(Starlink)计划是由太空探索技术公司(SpaceX)提出的一个巨型低轨卫星互联网星座项目,计划在2019年至2024年间在太空搭建由约1.2万颗卫星组成的“星链”网络,其中1584颗将部署在地球上空550千米处的近地轨道,并从2020年开始工作。该卫星仍在工作。
2D Orbit Map
3D Orbit Map
Orbit Altitude Analysis Chart
Orbit Inclination Analysis Chart
Orbit Comprehensive Analysis Chart
View Comprehensive Chart
Conjunction Data List
Event ID Objects TCA Miss Dist (km) Collision Risk Probability Collision Risk Index (CRI) Action
CDM_260910-102504-810706-760621
2026-09-10T
10:25:42+0000
2.423 km
极远距离
1.346704E-6 低风险 0.38
CDM_260913-133904-810705-718223
OBJECT S (57182)
2026-09-13T
13:39:56+0000
2.856 km
极远距离
9.49896E-7 极低风险 0.35
CDM_260913-222104-810706-190121
OBJECT H (61901)
2026-09-13T
22:21:17+0000
2.876 km
极远距离
8.701552E-7 极低风险 0.34
Miss Distance Evolution Trend with All Objects
Collision Probability Evolution Trend with All Objects